FENGYUN 1C DEB, 31295

Orbit data source: Space-Track

FENGYUN 1C DEB, 31295 is space debris in SSO originally from a launch on Mon, 10 May 1999 UTC launched from the Taiyaun Space Center, China (TSC). Fengyun 1C debris stems from the Chinese weather satellite Fengyun-1C, which was intentionally destroyed by a Chinese anti-satellite missile in 2007. This event dramatically increased the amount of space debris, with thousands of trackable fragments posing hazards to satellites and human spaceflight. The Fengyun 1C debris cloud has become a focal point in discussions about space sustainability and the need for international regulations to prevent the creation of new debris.

Loading next visibility...
Identifier
31295, 1999-025BPD
Orbit
SSO
Country
Flag of CNCN / PRC
Related business
Manufacturer
Unknown
Mission
Spacecraft
Bus & Motor
Unknown
Mass
Unknown
Launch date (UTC)
1999-05-10 (27 years ago)
Launch vehicle
Unknown
Launch site
Taiyaun Space Center, China (TSC)
Object type
Payload
Rocket body
Debris
Shape & HBR
Unknown shape, 0.1 m
Radar Cross Section
Medium (>0.1 m² and <1 m²)

Expand to show TLE details & history
Last TLE update: 19 hours ago

TLE from 19 hours ago
0 FENGYUN 1C DEB
1 31295U 99025BPD 26235.66909655  .00000278  00000-0  22237-3 0  9995
2 31295  98.3354  41.7039 0076448 259.2932  99.9619 13.96912091990483
Epoch: 2026-08-23T16:03Z
TLE epoch observation values (Epoch: 2026-08-23T16:03:29.941Z)
Latitude
0.00002°
Longitude
-171.13269°
Altitude
917.447 km
Speed
7.388 km/s
True Right ascension
02h 46m 48s
True Declination
0° 00' 00"
Sunlit
Object was in daylight at epoch
Visualization orbit readout
Latitude
Unknown
Longitude
Unknown
Altitude
Unknown
Speed
Unknown
Apparent Right ascension
Unknown
Apparent Declination
Unknown
Sunlit
N/A
Visualization observer readout
Local Sidereal Time
02:00:12
Azimuth
Unknown
Elevation
Unknown
Doppler factor
Unknown
Orbital elements
Apogee altitude
957.332 km
Perigee altitude
846.027 km
Semi-major axis
7,279.817 km
Eccentricity
0.00764
Inclination
98.3354°
RAAN
41.7039°
Arg. of periapsis
259.2932°
True anomaly
100.82327°
Mean anomaly
99.9619°
Eccentric anomaly
100.39273°
Mean motion
3.49432 °/min
Orbital period
103.02 mins
BSTAR
0.00022237
Loading maneuver chart data...
Computing Atmospheric mass density...

Documentation

Showing up to 5 results
|